Temperature
10 10 9 9 8 8 8 7 7 6 6 5 5 5 5 4 4 3 3 2 2 2 1 1 0 -0 -1 -1 -2 -2 -3 -3 -4 -4 -4 -5 -5 -5 -4 -4 -4 -4 -4
10 9 9 8 8 8 7 7 6 6 5 5 5 4 4 4 3 3 2 2 1 1 1 0 -0 -1 -1 -2 -2 -3 -3 -3 -4 -5 -5 -5 -5 -5 -5 -5 -5 -5 -4
9 9 8 8 8 7 7 6 6 5 5 5 4 4 4 3 3 2 2 1 1 1 0 -0 -1 -1 -2 -2 -3 -3 -3 -4 -5 -5 -6 -6 -6 -6 -6 -5 -5 -5 -5
9 9 8 8 7 7 6 6 5 5 5 4 4 3 3 3 2 2 1 1 1 0 -0 -1 -1 -2 -2 -3 -3 -4 -4 -5 -5 -5 -6 -6 -6 -6 -6 -6 -6 -5 -5
9 8 8 7 6 6 6 5 5 4 4 4 3 3 3 2 2 1 1 0 -0 -1 -1 -1 -2 -3 -3 -4 -4 -5 -5 -5 -5 -6 -6 -6 -6 -6 -6 -6 -6 -6 -6
8 8 7 6 6 6 5 5 4 4 4 3 3 2 2 2 1 1 0 -1 -1 -1 -2 -2 -3 -3 -3 -4 -5 -5 -5 -5 -6 -6 -6 -6 -6 -6 -6 -6 -6 -6 -6
8 7 7 6 6 5 5 4 4 3 3 3 2 2 2 1 1 0 -0 -1 -1 -2 -2 -3 -3 -4 -4 -5 -5 -5 -5 -6 -6 -6 -6 -6 -6 -6 -6 -6 -6 -6 -6
7 7 6 6 5 5 4 4 3 3 3 2 2 2 1 1 0 -0 -1 -1 -2 -2 -3 -3 -4 -4 -5 -5 -5 -6 -6 -6 -6 -6 -6 -6 -6 -6 -6 -6 -6 -6 -6
7 6 6 5 5 4 4 3 3 2 2 2 1 1 1 0 -0 -1 -1 -2 -3 -3 -3 -4 -5 -5 -5 -6 -6 -6 -6 -6 -6 -6 -6 -6 -6 -6 -6 -6 -6 -6 -6
6 6 5 4 4 4 3 3 2 2 1 1 1 0 -0 -0 -1 -2 -2 -3 -4 -4 -4 -5 -5 -6 -6 -6 -6 -6 -6 -6 -6 -6 -6 -6 -6 -6 -7 -7 -7 -7 -7
5 5 4 4 3 3 3 2 2 1 1 1 0 -0 -1 -1 -2 -2 -3 -4 -5 -5 -5 -5 -6 -6 -6 -6 -6 -6 -6 -6 -6 -7 -7 -7 -7 -7 -7 -7 -7 -7 -7
4 4 4 3 3 2 2 2 1 0 0 -0 -1 -1 -1 -2 -3 -3 -4 -5 -5 -6 -6 -6 -6 -7 -7 -6 -6 -7 -7 -7 -7 -7 -7 -7 -7 -7 -7 -7 -7 -7 -7
4 3 3 3 2 2 1 1 0 -0 -1 -1 -2 -2 -2 -3 -3 -4 -5 -6 -6 -6 -6 -7 -7 -7 -7 -7 -7 -7 -7 -8 -8 -8 -8 -8 -8 -8 -8 -8 -7 -7 -7
3 3 2 2 2 1 1 -0 -1 -1 -2 -2 -3 -3 -4 -4 -4 -5 -6 -6 -6 -7 -7 -7 -7 -7 -7 -7 -8 -7 -8 -8 -8 -9 -9 -8 -8 -8 -8 -8 -8 -8 -8
2 2 2 1 1 0 -0 -1 -2 -2 -3 -3 -4 -5 -5 -5 -5 -6 -7 -7 -7 -7 -7 -7 -7 -7 -8 -8 -8 -8 -8 -8 -9 -9 -9 -9 -9 -9 -8 -8 -8 -8 -8
2 2 1 1 -0 -1 -1 -2 -2 -3 -3 -4 -5 -5 -6 -6 -6 -7 -7 -7 -7 -7 -7 -8 -8 -8 -8 -9 -9 -9 -9 -9 -9 -9 -9 -9 -9 -9 -9 -9 -9 -9 -9
1 1 0 -0 -1 -2 -2 -3 -3 -3 -4 -5 -5 -6 -6 -6 -7 -7 -8 -8 -8 -8 -8 -8 -9 -9 -9 -9 -10 -10 -10 -9 -10 -10 -10 -9 -9 -9 -9 -9 -9 -9 -9
0 -0 -1 -1 -2 -3 -3 -4 -4 -5 -5 -5 -6 -7 -7 -7 -8 -8 -8 -8 -8 -9 -9 -9 -9 -10 -10 -10 -10 -10 -10 -10 -10 -10 -10 -10 -10 -10 -9 -9 -9 -9 -9
-1 -1 -2 -2 -3 -3 -4 -5 -5 -6 -7 -7 -7 -7 -8 -8 -9 -9 -9 -9 -9 -9 -9 -10 -10 -10 -11 -11 -11 -11 -10 -10 -10 -10 -10 -10 -10 -10 -10 -9 -9 -9 -9
-1 -2 -3 -3 -4 -4 -5 -6 -6 -7 -8 -8 -8 -8 -9 -9 -9 -9 -9 -10 -10 -10 -10 -11 -11 -11 -11 -11 -11 -11 -11 -11 -11 -10 -10 -10 -10 -10 -10 -10 -9 -9 -9
-2 -3 -3 -4 -5 -5 -6 -7 -7 -8 -8 -9 -9 -9 -9 -10 -10 -10 -10 -10 -10 -11 -11 -11 -11 -11 -11 -11 -11 -11 -11 -11 -11 -11 -11 -10 -10 -10 -10 -10 -10 -10 -9
-3 -4 -4 -5 -6 -7 -7 -8 -8 -9 -9 -9 -9 -10 -10 -10 -10 -11 -11 -11 -11 -11 -11 -12 -12 -12 -12 -12 -12 -12 -12 -11 -11 -11 -11 -11 -10 -10 -10 -10 -10 -10 -10
-4 -5 -6 -6 -7 -8 -8 -9 -9 -9 -10 -10 -10 -10 -11 -11 -11 -11 -11 -11 -11 -12 -12 -12 -12 -12 -12 -12 -12 -12 -12 -11 -11 -11 -11 -11 -11 -10 -10 -10 -10 -10 -10
-6 -6 -7 -8 -8 -9 -9 -9 -10 -10 -10 -11 -11 -11 -11 -12 -12 -12 -12 -12 -12 -12 -12 -12 -12 -12 -12 -12 -12 -12 -12 -11 -11 -11 -11 -11 -11 -11 -11 -10 -10 -10 -10
-7 -8 -8 -9 -9 -9 -10 -10 -11 -11 -11 -11 -12 -12 -12 -12 -12 -12 -12 -12 -12 -12 -12 -12 -12 -12 -12 -12 -12 -12 -11 -11 -11 -11 -11 -11 -11 -11 -10 -11 -10 -10 -10
-8 -8 -9 -9 -10 -10 -11 -11 -11 -11 -12 -12 -12 -12 -12 -12 -12 -12 -12 -13 -13 -13 -13 -12 -12 -12 -12 -12 -11 -11 -11 -11 -11 -11 -11 -11 -11 -10 -10 -10 -10 -10 -10
Wind_Speed
8 7 7 6 5 5 5 4 4 3 3 3 3 3 4 4 4 4 5 6 7 7 7 7 9 8 7 7 6 7 7 7 14 12 6 7 8 11 14 18 21 20 21
8 8 7 6 6 5 5 4 4 3 3 3 3 4 5 5 5 6 7 7 7 8 9 8 9 8 8 7 7 8 9 9 10 17 11 7 9 10 12 12 14 17 17
8 8 7 7 6 6 5 4 4 4 3 3 4 5 6 6 6 7 7 8 8 9 9 9 10 9 10 9 8 9 9 10 9 13 15 9 8 9 10 11 13 11 15
9 8 8 7 7 6 5 4 4 4 4 5 5 6 6 7 7 8 8 8 9 10 10 10 10 10 11 10 9 10 10 10 11 12 14 11 8 8 8 9 11 8 11
9 9 8 6 5 5 4 4 4 4 5 5 5 6 7 6 7 8 8 9 10 10 10 10 10 13 17 15 12 10 9 9 10 11 13 12 10 7 8 8 12 11 10
10 8 7 6 5 5 4 4 4 4 5 5 6 7 7 7 13 17 15 9 9 9 9 9 10 13 17 22 24 23 20 14 12 12 13 13 12 9 9 10 12 13 11
8 7 6 6 5 5 4 3 4 5 5 6 7 7 8 11 17 19 20 13 9 9 9 9 10 11 17 11 18 23 21 25 24 17 16 15 14 12 13 14 13 14 14
8 7 6 5 5 4 3 4 5 4 5 6 7 8 8 11 18 20 21 13 9 9 9 10 11 11 12 14 12 13 13 14 17 14 13 15 15 14 14 15 15 14 12
7 6 6 5 5 4 5 6 5 4 6 6 7 8 9 12 18 20 21 9 9 10 10 10 11 11 20 24 17 14 14 12 18 23 24 22 25 25 20 11 10 11 12
6 5 5 5 5 5 6 5 4 4 6 7 8 8 9 11 17 20 20 8 9 10 9 10 17 18 23 25 15 13 15 13 11 13 15 16 14 15 20 12 9 11 9
4 4 4 4 4 5 4 4 5 5 6 7 9 9 9 12 16 19 20 10 9 10 10 8 9 21 25 26 23 13 17 18 11 10 9 8 8 8 8 8 8 9 9
4 3 3 3 3 3 4 5 5 6 7 8 9 10 8 9 13 16 20 20 19 13 10 8 11 23 26 26 19 19 25 21 7 7 7 8 7 7 7 7 8 8 9
3 2 3 3 4 4 5 6 5 5 6 8 8 10 10 7 10 19 22 23 23 15 11 19 23 26 24 16 18 23 19 8 7 8 9 8 7 7 7 7 7 7 8
2 3 3 4 5 5 4 5 5 6 7 8 9 10 10 9 8 8 9 12 16 14 13 17 22 22 17 17 16 12 7 8 9 9 8 7 6 6 6 6 6 5 5
2 3 4 4 5 6 6 6 7 7 8 9 9 9 11 12 13 20 17 11 9 12 14 9 7 6 6 7 7 7 7 7 8 7 8 8 7 7 7 5 4 4 4
3 4 4 4 5 5 6 8 11 13 18 19 20 18 15 20 25 26 26 25 25 24 17 9 8 7 9 9 9 8 8 8 8 8 8 8 7 7 7 6 5 4 5
4 5 5 5 6 6 6 8 10 11 15 18 20 21 21 24 26 26 26 25 24 22 11 7 8 9 9 9 9 9 9 9 8 8 8 8 7 7 6 6 5 5 5
5 7 6 6 6 6 7 8 8 11 12 10 12 19 22 23 24 25 25 21 13 11 6 8 9 9 9 9 9 9 9 8 8 8 8 7 7 7 6 6 5 5 6
5 5 6 6 6 7 7 8 9 11 12 12 11 12 18 20 22 23 20 10 10 9 8 8 8 9 9 9 9 9 9 9 9 8 8 8 7 7 7 6 6 9 7
5 10 10 7 6 7 7 8 10 10 11 11 12 10 9 12 11 11 9 8 9 9 9 9 9 9 9 9 9 9 9 9 9 8 8 7 7 7 7 7 6 6 5
6 8 13 10 7 8 8 9 10 10 11 12 11 13 20 13 11 10 10 9 8 9 9 9 9 9 9 8 8 10 11 10 8 8 8 7 7 7 6 6 6 6 6
6 7 7 8 9 9 10 10 10 10 12 13 12 13 21 13 10 10 10 10 8 8 9 9 9 9 8 9 9 10 10 9 8 8 8 7 7 7 7 7 6 6 6
7 8 9 9 9 14 13 9 10 11 12 12 12 12 12 10 10 11 11 10 9 9 8 8 10 10 9 9 9 10 10 10 9 9 9 9 8 7 7 8 8 8 7
8 9 10 10 10 10 11 11 10 11 12 12 12 12 11 11 11 11 11 10 9 9 8 9 10 12 14 12 10 9 9 10 10 10 11 11 10 9 8 8 8 9 9
8 9 9 10 10 10 11 11 11 12 12 13 12 12 12 12 11 11 10 10 11 11 11 11 10 11 13 14 14 12 18 22 21 14 11 10 11 11 10 10 9 9 9
8 8 9 9 9 10 11 11 12 12 12 13 12 11 12 12 12 11 11 10 10 11 11 11 12 13 14 14 15 19 23 23 22 22 13 9 10 9 9 9 10 10 10
Wind_Direction
162 156 151 156 155 155 164 178 183 187 194 213 233 250 264 271 269 265 266 269 266 269 268 260 260 259 257 255 249 246 247 248 276 285 260 259 257 265 278 280 283 285 286
163 157 159 158 158 166 180 189 190 202 217 229 241 257 266 269 268 264 269 271 266 268 268 266 266 267 259 257 253 252 254 249 264 285 288 273 260 262 267 270 278 281 279
159 158 160 166 172 183 192 197 203 215 236 247 249 260 268 271 272 268 264 266 264 262 263 263 265 264 266 263 256 257 259 262 258 274 286 280 270 269 273 273 271 272 276
162 164 171 180 185 191 196 204 216 225 242 256 260 263 267 271 272 272 269 267 265 263 260 258 258 257 261 263 265 260 259 262 264 270 281 284 277 267 266 276 281 270 272
165 172 182 181 180 185 199 215 226 238 249 258 268 275 275 275 269 268 265 261 261 264 262 258 258 268 273 277 277 266 259 265 271 276 283 287 283 276 273 274 283 284 275
170 177 174 171 178 193 208 220 237 256 265 268 270 274 279 280 291 297 295 277 267 265 268 266 266 276 284 288 290 291 289 283 283 281 285 285 286 280 280 281 284 287 286
168 168 169 172 185 202 212 226 248 260 265 273 273 273 275 282 295 299 299 297 280 271 270 271 280 280 290 280 285 288 286 285 284 284 284 284 285 282 281 281 277 277 279
162 166 170 175 193 205 219 242 255 257 262 268 272 274 276 284 297 301 302 298 281 272 268 267 272 275 276 283 272 269 265 268 272 276 270 272 274 275 271 275 279 281 278
164 173 178 182 195 214 237 252 257 260 268 268 270 274 276 285 296 301 300 287 278 274 269 267 273 272 282 292 291 283 281 276 281 281 281 283 286 292 293 292 288 287 286
177 179 179 184 200 224 242 256 256 257 268 276 277 273 272 278 291 297 297 285 281 280 274 267 279 286 291 295 292 286 288 288 283 284 284 286 287 288 290 284 278 281 282
159 163 179 196 215 233 246 252 263 271 278 280 281 280 274 278 289 293 296 291 280 283 283 278 273 291 294 296 297 293 292 296 291 289 289 284 280 274 272 268 262 266 275
148 168 200 222 237 243 250 266 268 272 281 284 285 287 277 274 284 289 293 295 295 292 289 283 282 293 295 299 301 298 300 305 302 295 289 286 282 279 278 275 268 263 261
155 201 234 250 253 250 252 265 275 272 273 281 283 288 289 275 276 289 295 297 297 294 287 291 295 299 303 304 300 301 305 305 295 289 285 282 273 273 280 283 280 275 273
192 237 251 261 270 267 257 253 260 266 270 276 280 286 289 286 276 272 274 283 288 290 289 290 295 298 298 296 299 300 293 281 284 281 281 279 277 277 280 279 283 290 289
227 251 261 260 265 272 266 254 260 250 256 271 275 276 287 291 288 294 297 293 290 286 295 290 286 288 287 286 284 283 280 282 287 281 281 282 283 283 284 279 272 277 278
248 261 262 266 269 268 276 284 274 273 281 282 284 286 287 288 296 299 301 301 303 303 304 297 294 291 292 291 291 290 287 284 282 283 283 281 281 282 285 282 273 270 274
248 263 266 265 269 272 275 282 292 294 286 287 288 291 291 295 298 301 302 302 303 306 302 292 290 289 289 288 286 284 285 284 280 280 282 279 278 278 278 278 275 272 272
259 271 274 264 266 269 271 274 279 289 297 293 289 291 294 297 300 302 303 306 302 299 279 281 284 286 286 285 284 283 283 284 280 276 276 274 272 273 274 272 270 266 270
268 268 267 264 264 266 269 274 277 282 286 292 294 293 295 298 300 299 301 295 288 287 284 282 281 282 283 283 281 281 281 282 279 276 274 271 269 267 269 266 264 274 276
270 282 288 278 270 273 274 278 282 284 286 289 291 293 296 297 293 292 288 278 279 282 283 283 283 282 282 281 280 280 280 280 277 273 271 268 265 261 263 263 261 261 260
269 280 291 290 279 278 279 280 281 283 285 287 287 290 296 298 295 292 289 282 277 280 282 282 282 282 281 280 279 279 278 278 275 272 271 268 262 260 257 257 257 256 258
271 273 275 277 280 280 282 280 280 282 285 287 289 292 297 295 288 287 285 283 277 275 277 279 281 279 277 277 278 280 280 277 275 270 269 266 262 259 257 255 254 252 252
273 279 283 282 282 287 291 284 282 284 286 287 290 292 292 288 286 287 286 284 281 279 278 278 280 280 276 275 273 274 277 277 275 272 271 271 265 259 255 252 251 251 250
276 280 284 287 287 287 288 288 286 287 288 288 289 289 289 287 286 286 286 286 283 282 280 280 279 278 277 279 278 274 272 273 272 269 263 261 259 257 253 250 248 247 247
280 283 287 289 290 291 291 290 290 289 290 291 291 290 289 288 287 288 287 285 282 282 282 281 281 280 278 278 278 277 280 282 283 278 265 257 251 247 247 245 245 245 244
286 288 291 291 288 288 289 290 290 289 289 289 288 287 288 288 287 287 286 285 283 283 284 284 279 277 277 280 279 281 284 285 285 284 278 266 253 248 243 245 242 242 244
Height
1509 1512 1514 1515 1516 1517 1518 1518 1518 1517 1517 1516 1515 1513 1511 1509 1507 1504 1502 1499 1496 1493 1490 1487 1484 1481 1477 1474 1471 1467 1464 1459 1448 1440 1440 1437 1434 1431 1428 1426 1422 1418 1414
1506 1509 1510 1512 1513 1513 1514 1514 1514 1514 1513 1512 1510 1508 1506 1504 1501 1499 1496 1493 1489 1486 1483 1480 1477 1473 1470 1466 1463 1459 1455 1451 1444 1434 1430 1429 1426 1424 1420 1417 1414 1411 1407
1503 1505 1507 1508 1509 1510 1510 1510 1510 1509 1508 1507 1505 1503 1501 1498 1496 1493 1489 1486 1483 1479 1476 1472 1469 1465 1461 1458 1454 1450 1446 1442 1437 1430 1422 1420 1418 1416 1413 1409 1406 1403 1400
1499 1501 1503 1504 1505 1506 1506 1506 1506 1505 1504 1502 1500 1498 1495 1492 1489 1486 1483 1479 1475 1472 1469 1465 1461 1458 1453 1449 1445 1441 1437 1433 1429 1423 1417 1413 1410 1408 1405 1401 1397 1394 1391
1494 1496 1499 1500 1501 1502 1502 1502 1501 1500 1499 1497 1495 1492 1490 1486 1483 1479 1475 1471 1467 1463 1460 1457 1453 1449 1445 1441 1437 1433 1430 1425 1421 1416 1411 1406 1402 1400 1398 1395 1390 1385 1382
1490 1492 1495 1496 1497 1497 1497 1497 1496 1495 1493 1491 1489 1486 1483 1480 1476 1472 1468 1463 1459 1455 1451 1448 1444 1441 1437 1433 1430 1426 1423 1419 1414 1410 1404 1400 1396 1394 1391 1387 1383 1379 1374
1486 1488 1490 1492 1493 1493 1493 1492 1491 1489 1487 1485 1483 1479 1476 1473 1469 1465 1461 1456 1451 1447 1443 1439 1434 1431 1428 1423 1419 1416 1413 1410 1407 1404 1397 1393 1389 1386 1383 1379 1375 1371 1367
1482 1484 1486 1487 1488 1488 1488 1487 1485 1483 1481 1478 1476 1472 1469 1465 1462 1457 1453 1448 1443 1439 1435 1431 1426 1422 1418 1414 1409 1405 1402 1400 1397 1394 1389 1385 1381 1378 1375 1371 1367 1363 1359
1478 1481 1482 1483 1484 1483 1483 1481 1480 1477 1474 1471 1468 1465 1461 1457 1454 1449 1445 1438 1433 1429 1426 1422 1418 1413 1410 1407 1403 1398 1393 1390 1388 1385 1381 1378 1374 1371 1369 1364 1360 1357 1352
1475 1477 1479 1479 1479 1478 1477 1476 1473 1470 1467 1464 1460 1457 1453 1449 1445 1441 1436 1430 1425 1420 1416 1413 1410 1406 1402 1399 1396 1390 1385 1381 1378 1374 1371 1368 1365 1362 1360 1357 1353 1350 1346
1473 1474 1475 1475 1474 1473 1472 1469 1467 1463 1460 1456 1452 1449 1445 1441 1436 1432 1428 1423 1418 1412 1408 1404 1401 1398 1395 1391 1388 1383 1379 1375 1370 1366 1362 1358 1356 1353 1351 1348 1346 1344 1341
1469 1470 1470 1470 1469 1467 1465 1463 1460 1456 1452 1448 1443 1439 1436 1432 1428 1423 1419 1416 1412 1407 1401 1396 1393 1389 1386 1383 1379 1375 1371 1367 1362 1358 1354 1351 1348 1345 1343 1341 1339 1337 1335
1466 1466 1466 1465 1464 1461 1459 1456 1452 1449 1444 1440 1435 1429 1425 1422 1419 1415 1411 1407 1403 1399 1394 1389 1386 1382 1378 1374 1370 1367 1363 1359 1354 1350 1347 1344 1341 1339 1337 1334 1332 1330 1328
1462 1461 1461 1459 1457 1455 1452 1449 1445 1441 1437 1432 1427 1422 1417 1412 1409 1405 1401 1397 1394 1390 1385 1381 1377 1373 1369 1365 1362 1358 1355 1351 1348 1344 1341 1338 1336 1333 1331 1329 1326 1324 1322
1457 1456 1454 1452 1450 1447 1444 1441 1437 1433 1430 1425 1420 1415 1410 1404 1401 1399 1395 1390 1386 1382 1377 1372 1368 1364 1360 1357 1353 1350 1347 1344 1341 1338 1335 1332 1330 1328 1326 1324 1322 1320 1318
1451 1450 1448 1445 1442 1439 1435 1431 1428 1426 1421 1417 1413 1409 1403 1399 1394 1390 1387 1383 1379 1375 1371 1365 1361 1357 1353 1349 1346 1343 1340 1337 1335 1332 1330 1327 1325 1323 1321 1319 1317 1316 1314
1445 1443 1441 1438 1435 1431 1427 1422 1417 1414 1411 1408 1404 1400 1396 1391 1386 1382 1378 1374 1370 1367 1362 1357 1354 1350 1346 1343 1339 1336 1333 1331 1329 1326 1324 1322 1320 1318 1316 1314 1313 1311 1310
1439 1437 1433 1430 1427 1423 1419 1415 1410 1404 1399 1395 1393 1390 1386 1382 1378 1374 1370 1366 1361 1358 1354 1350 1346 1343 1339 1336 1333 1330 1327 1324 1322 1320 1318 1316 1314 1313 1311 1309 1308 1307 1306
1432 1429 1426 1422 1419 1415 1411 1407 1402 1397 1392 1386 1382 1379 1377 1373 1369 1365 1362 1358 1353 1349 1346 1342 1339 1335 1332 1329 1326 1323 1320 1318 1315 1314 1312 1310 1309 1307 1306 1304 1303 1302 1301
1425 1422 1418 1414 1410 1406 1402 1398 1393 1389 1384 1379 1375 1371 1367 1364 1359 1355 1353 1349 1345 1341 1338 1334 1331 1328 1324 1321 1318 1316 1313 1311 1309 1307 1305 1304 1303 1301 1300 1299 1298 1297 1296
1417 1414 1411 1407 1402 1398 1394 1389 1385 1381 1376 1372 1367 1364 1361 1357 1351 1347 1344 1340 1337 1333 1330 1326 1323 1320 1317 1314 1311 1308 1306 1304 1302 1301 1299 1298 1296 1295 1294 1293 1292 1292 1291
1410 1406 1402 1398 1393 1389 1385 1381 1377 1373 1368 1363 1358 1354 1351 1348 1343 1339 1335 1331 1328 1325 1322 1319 1315 1311 1309 1306 1304 1301 1299 1297 1295 1294 1292 1291 1290 1289 1288 1287 1286 1286 1285
1402 1397 1393 1389 1385 1381 1377 1373 1369 1364 1359 1355 1350 1345 1342 1338 1334 1330 1327 1323 1320 1317 1314 1310 1306 1303 1301 1298 1296 1294 1292 1290 1289 1287 1286 1284 1283 1282 1282 1281 1280 1280 1280
1393 1389 1385 1380 1376 1372 1368 1363 1359 1355 1350 1346 1341 1337 1333 1329 1326 1322 1318 1315 1311 1308 1305 1302 1298 1295 1293 1290 1288 1286 1284 1283 1281 1280 1278 1277 1276 1275 1275 1274 1274 1273 1273
1385 1381 1376 1372 1368 1363 1359 1354 1350 1345 1341 1337 1333 1328 1325 1321 1317 1313 1310 1306 1303 1299 1296 1293 1290 1287 1284 1282 1280 1278 1276 1275 1274 1273 1272 1270 1269 1268 1268 1267 1267 1267 1267
1377 1372 1368 1363 1359 1354 1349 1345 1340 1336 1332 1328 1324 1320 1316 1312 1308 1305 1301 1298 1294 1291 1288 1285 1282 1279 1276 1274 1271 1269 1268 1266 1265 1265 1264 1263 1262 1261 1260 1260 1259 1259 1259